| time (UTC) | temp C | wind direction | speed KPH | gust KPH | rain 1hr cm | rain 24hr cm | rain mn cm | humidity % | barometer mb |
| 20260505101110 | 10 | 96 | 4.8 | 12.9 | 0.00 | 0.00 | 0.00 | 81 | 1015.1 |
| 20260505100508 | 10 | 96 | 6.4 | 11.3 | 0.00 | 0.00 | 0.00 | 78 | 1015.0 |
| 20260505100007 | 12 | 96 | 3.2 | 6.4 | 0.00 | 0.00 | 0.00 | 73 | 1014.9 |
| 20260505095506 | 12 | 96 | 0.0 | 4.8 | 0.00 | 0.00 | 0.00 | 73 | 1014.7 |
| 20260505095007 | 12 | 96 | 0.0 | 4.8 | 0.00 | 0.00 | 0.00 | 73 | 1014.6 |
| 20260505094507 | 11 | 96 | 0.0 | 4.8 | 0.00 | 0.00 | 0.00 | 75 | 1014.6 |
| 20260505094007 | 11 | 96 | 0.0 | 1.6 | 0.00 | 0.00 | 0.00 | 77 | 1014.6 |
| 20260505093508 | 11 | 96 | 0.0 | 1.6 | 0.00 | 0.00 | 0.00 | 77 | 1014.6 |
| 20260505093006 | 11 | 96 | 0.0 | 1.6 | 0.00 | 0.00 | 0.00 | 78 | 1014.7 |
| 20260505092508 | 11 | 96 | 0.0 | 0.0 | 0.00 | 0.00 | 0.00 | 77 | 1014.8 |
| 20260505092005 | 11 | 96 | 0.0 | 0.0 | 0.00 | 0.00 | 0.00 | 76 | 1014.7 |
| 20260505091505 | 11 | 96 | 0.0 | 3.2 | 0.00 | 0.00 | 0.00 | 76 | 1014.7 |
| 20260505091005 | 11 | 96 | 0.0 | 4.8 | 0.00 | 0.00 | 0.00 | 76 | 1014.5 |
| 20260505090504 | 11 | 96 | 0.0 | 9.7 | 0.00 | 0.00 | 0.00 | 76 | 1014.5 |
| 20260505090010 | 11 | 96 | 4.8 | 9.7 | 0.00 | 0.00 | 0.00 | 75 | 1014.6 |
| 20260505085504 | 12 | 96 | 0.0 | 1.6 | 0.00 | 0.00 | 0.00 | 74 | 1014.4 |
| 20260505085004 | 12 | 96 | 0.0 | 1.6 | 0.00 | 0.00 | 0.00 | 74 | 1014.4 |
| 20260505084502 | 11 | 96 | 0.0 | 1.6 | 0.00 | 0.00 | 0.00 | 75 | 1014.3 |
| 20260505084003 | 11 | 96 | 0.0 | 3.2 | 0.00 | 0.00 | 0.00 | 76 | 1014.3 |
| 20260505083503 | 11 | 96 | 0.0 | 3.2 | 0.00 | 0.00 | 0.00 | 76 | 1014.2 |
| 20260505083004 | 11 | 96 | 0.0 | 3.2 | 0.00 | 0.00 | 0.00 | 75 | 1014.2 |
| 20260505082502 | 12 | 96 | 1.6 | 3.2 | 0.00 | 0.00 | 0.00 | 74 | 1014.3 |
| 20260505082002 | 12 | 96 | 0.0 | 1.6 | 0.00 | 0.00 | 0.00 | 74 | 1014.2 |
| 20260505081501 | 12 | 96 | 0.0 | 0.0 | 0.00 | 0.00 | 0.00 | 75 | 1014.3 |
| 20260505081004 | 12 | 96 | 0.0 | 0.0 | 0.00 | 0.00 | 0.00 | 76 | 1014.3 |
| 20260505080601 | 11 | 96 | 0.0 | 0.0 | 0.00 | 0.00 | 0.00 | 75 | 1014.3 |
| 20260505080501 | 12 | 96 | 0.0 | 0.0 | 0.00 | 0.00 | 0.00 | 75 | 1014.2 |
| 20260505075601 | 12 | 96 | 0.0 | 0.0 | 0.00 | 0.00 | 0.00 | 74 | 1014.1 |
| 20260505074601 | 12 | 96 | 0.0 | 1.6 | 0.00 | 0.00 | 0.00 | 75 | 1014.1 |
| 20260505074100 | 12 | 96 | 0.0 | 0.0 | 0.00 | 0.00 | 0.00 | 75 | 1014.1 |
| 20260505073600 | 12 | 96 | 0.0 | 1.6 | 0.00 | 0.00 | 0.00 | 74 | 1014.1 |
| 20260505073129 | 12 | 96 | 0.0 | 3.2 | 0.00 | 0.00 | 0.00 | 74 | 1014.2 |
| 20260505072600 | 12 | 96 | 0.0 | 4.8 | 0.00 | 0.00 | 0.00 | 74 | 1014.2 |
| 20260505072101 | 12 | 96 | 0.0 | 4.8 | 0.00 | 0.00 | 0.00 | 74 | 1014.1 |
| 20260505071602 | 12 | 96 | 0.0 | 1.6 | 0.00 | 0.00 | 0.00 | 73 | 1014.1 |
| 20260505071057 | 12 | 96 | 0.0 | 0.0 | 0.00 | 0.00 | 0.00 | 73 | 1014.1 |
| 20260505070557 | 12 | 96 | 0.0 | 1.6 | 0.00 | 0.00 | 0.00 | 73 | 1014.1 |
| 20260505065559 | 12 | 96 | 0.0 | 3.2 | 0.00 | 0.00 | 0.00 | 72 | 1014.2 |
| 20260505064556 | 13 | 96 | 3.2 | 4.8 | 0.00 | 0.00 | 0.00 | 70 | 1014.3 |
| 20260505064055 | 14 | 96 | 0.0 | 4.8 | 0.00 | 0.00 | 0.00 | 66 | 1014.3 |
| 20260505063555 | 14 | 96 | 1.6 | 4.8 | 0.00 | 0.00 | 0.00 | 64 | 1014.4 |
| 20260505063055 | 14 | 96 | 1.6 | 9.7 | 0.00 | 0.00 | 0.00 | 64 | 1014.3 |
| 20260505062555 | 14 | 96 | 3.2 | 9.7 | 0.00 | 0.00 | 0.00 | 64 | 1014.4 |
| 20260505062100 | 14 | 96 | 3.2 | 9.7 | 0.00 | 0.00 | 0.00 | 64 | 1014.4 |
| 20260505061554 | 14 | 96 | 1.6 | 6.4 | 0.00 | 0.00 | 0.00 | 64 | 1014.4 |
| 20260505061054 | 14 | 96 | 3.2 | 6.4 | 0.00 | 0.00 | 0.00 | 65 | 1014.5 |
| 20260505060554 | 13 | 96 | 1.6 | 4.8 | 0.00 | 0.00 | 0.00 | 67 | 1014.6 |
| 20260505060054 | 13 | 96 | 0.0 | 4.8 | 0.00 | 0.00 | 0.00 | 68 | 1014.6 |
| 20260505055556 | 14 | 96 | 1.6 | 4.8 | 0.00 | 0.00 | 0.00 | 67 | 1014.6 |
| 20260505054549 | 14 | 96 | 0.0 | 1.6 | 0.00 | 0.00 | 0.00 | 66 | 1014.6 |
| 20260505054049 | 14 | 96 | 0.0 | 3.2 | 0.00 | 0.00 | 0.00 | 65 | 1014.6 |
| 20260505053547 | 15 | 96 | 1.6 | 3.2 | 0.00 | 0.00 | 0.00 | 63 | 1014.7 |
| 20260505053045 | 15 | 96 | 0.0 | 3.2 | 0.00 | 0.00 | 0.00 | 61 | 1014.6 |
| 20260505052544 | 15 | 96 | 0.0 | 4.8 | 0.00 | 0.00 | 0.00 | 61 | 1014.6 |
| 20260505052044 | 15 | 96 | 0.0 | 4.8 | 0.00 | 0.00 | 0.00 | 60 | 1014.6 |
| 20260505051558 | 15 | 96 | 1.6 | 6.4 | 0.00 | 0.00 | 0.00 | 60 | 1014.6 |
| 20260505051045 | 16 | 96 | 1.6 | 6.4 | 0.00 | 0.00 | 0.00 | 59 | 1014.7 |
| 20260505050543 | 15 | 96 | 1.6 | 6.4 | 0.00 | 0.00 | 0.00 | 60 | 1014.6 |
| 20260505041542 | 15 | 96 | 0.0 | 1.6 | 0.00 | 0.00 | 0.00 | 62 | 1014.5 |
| 20260505041042 | 15 | 96 | 0.0 | 0.0 | 0.00 | 0.00 | 0.00 | 62 | 1014.5 |
| 20260505040542 | 16 | 96 | 0.0 | 0.0 | 0.00 | 0.00 | 0.00 | 61 | 1014.5 |
| 20260505040042 | 16 | 96 | 0.0 | 1.6 | 0.00 | 0.00 | 0.00 | 59 | 1014.5 |
| 20260505035541 | 16 | 96 | 0.0 | 1.6 | 0.00 | 0.00 | 0.00 | 58 | 1014.6 |
| 20260505034542 | 17 | 96 | 0.0 | 4.8 | 0.00 | 0.00 | 0.00 | 54 | 1014.6 |
| 20260505034041 | 17 | 96 | 0.0 | 4.8 | 0.00 | 0.00 | 0.00 | 54 | 1014.7 |
| 20260505033541 | 17 | 96 | 0.0 | 1.6 | 0.00 | 0.00 | 0.00 | 54 | 1014.7 |
| 20260505033042 | 17 | 96 | 0.0 | 1.6 | 0.00 | 0.00 | 0.00 | 53 | 1014.7 |
| 20260505032541 | 17 | 96 | 0.0 | 1.6 | 0.00 | 0.00 | 0.00 | 53 | 1014.8 |
| 20260505032043 | 17 | 96 | 0.0 | 3.2 | 0.00 | 0.00 | 0.00 | 53 | 1014.8 |
| 20260505031549 | 17 | 96 | 0.0 | 3.2 | 0.00 | 0.00 | 0.00 | 53 | 1014.8 |
| 20260505031041 | 17 | 96 | 0.0 | 3.2 | 0.00 | 0.00 | 0.00 | 53 | 1014.8 |
| 20260505030542 | 17 | 96 | 0.0 | 3.2 | 0.00 | 0.00 | 0.00 | 52 | 1014.8 |
| 20260505030042 | 17 | 96 | 0.0 | 0.0 | 0.00 | 0.00 | 0.00 | 52 | 1014.8 |
| 20260505025540 | 17 | 96 | 0.0 | 4.8 | 0.00 | 0.00 | 0.00 | 52 | 1014.9 |
| 20260505024543 | 18 | 96 | 3.2 | 6.4 | 0.00 | 0.00 | 0.00 | 51 | 1014.9 |
| 20260505024040 | 18 | 96 | 1.6 | 4.8 | 0.00 | 0.00 | 0.00 | 51 | 1014.9 |
| 20260505023543 | 18 | 96 | 1.6 | 4.8 | 0.00 | 0.00 | 0.00 | 51 | 1014.8 |
| 20260505023040 | 18 | 96 | 0.0 | 9.7 | 0.00 | 0.00 | 0.00 | 50 | 1015.0 |
| 20260505022540 | 18 | 96 | 4.8 | 9.7 | 0.00 | 0.00 | 0.00 | 49 | 1014.8 |
| 20260505022140 | 18 | 96 | 3.2 | 9.7 | 0.00 | 0.00 | 0.00 | 49 | 1014.9 |
| 20260505021540 | 18 | 96 | 3.2 | 6.4 | 0.00 | 0.00 | 0.00 | 49 | 1014.8 |
| 20260505021039 | 19 | 96 | 1.6 | 4.8 | 0.00 | 0.00 | 0.00 | 49 | 1014.8 |
| 20260505020540 | 19 | 96 | 0.0 | 9.7 | 0.00 | 0.00 | 0.00 | 48 | 1014.8 |
| 20260505020039 | 19 | 96 | 0.0 | 9.7 | 0.00 | 0.00 | 0.00 | 48 | 1014.6 |
| 20260505015539 | 19 | 96 | 1.6 | 9.7 | 0.00 | 0.00 | 0.00 | 48 | 1014.7 |
| 20260505014541 | 19 | 96 | 1.6 | 9.7 | 0.00 | 0.00 | 0.00 | 48 | 1014.6 |
| 20260505014042 | 19 | 96 | 4.8 | 9.7 | 0.00 | 0.00 | 0.00 | 48 | 1014.5 |
| 20260505013539 | 19 | 96 | 3.2 | 14.5 | 0.00 | 0.00 | 0.00 | 48 | 1014.4 |
| 20260505013057 | 19 | 96 | 6.4 | 14.5 | 0.00 | 0.00 | 0.00 | 48 | 1014.4 |
| 20260505012542 | 19 | 96 | 6.4 | 12.9 | 0.00 | 0.00 | 0.00 | 48 | 1014.4 |
| 20260505012040 | 19 | 96 | 3.2 | 9.7 | 0.00 | 0.00 | 0.00 | 49 | 1014.3 |
| 20260505011539 | 19 | 96 | 3.2 | 9.7 | 0.00 | 0.00 | 0.00 | 48 | 1014.2 |
| 20260505011039 | 19 | 96 | 1.6 | 9.7 | 0.00 | 0.00 | 0.00 | 48 | 1014.2 |
| 20260505010538 | 19 | 96 | 3.2 | 11.3 | 0.00 | 0.00 | 0.00 | 48 | 1014.2 |
| 20260505010038 | 20 | 96 | 4.8 | 12.9 | 0.00 | 0.00 | 0.00 | 48 | 1014.2 |
| 20260505005538 | 20 | 96 | 6.4 | 12.9 | 0.00 | 0.00 | 0.00 | 47 | 1014.2 |
| 20260505004542 | 20 | 96 | 3.2 | 12.9 | 0.00 | 0.00 | 0.00 | 46 | 1014.0 |
| 20260505004041 | 20 | 96 | 4.8 | 12.9 | 0.00 | 0.00 | 0.00 | 45 | 1013.9 |
| 20260505003543 | 20 | 96 | 6.4 | 14.5 | 0.00 | 0.00 | 0.00 | 45 | 1013.8 |
| 20260505003041 | 21 | 96 | 3.2 | 14.5 | 0.00 | 0.00 | 0.00 | 44 | 1013.8 |
| 20260505002541 | 21 | 96 | 9.7 | 16.1 | 0.00 | 0.00 | 0.00 | 43 | 1013.7 |
| 20260505002041 | 21 | 96 | 6.4 | 16.1 | 0.00 | 0.00 | 0.00 | 43 | 1013.9 |
| 20260505001540 | 21 | 96 | 9.7 | 17.7 | 0.00 | 0.00 | 0.00 | 43 | 1013.9 |
| 20260505001039 | 21 | 96 | 3.2 | 17.7 | 0.00 | 0.00 | 0.00 | 43 | 1013.9 |
| 20260505000539 | 21 | 96 | 6.4 | 14.5 | 0.00 | 0.00 | 0.00 | 43 | 1013.7 |
| 20260505000052 | 21 | 96 | 4.8 | 11.3 | 0.00 | 0.00 | 0.00 | 43 | 1013.7 |
| 20260504235539 | 21 | 96 | 4.8 | 16.1 | 0.00 | 0.00 | 0.00 | 43 | 1013.8 |
| 20260504234536 | 21 | 96 | 4.8 | 12.9 | 0.00 | 0.00 | 0.00 | 42 | 1013.6 |
| 20260504234035 | 21 | 96 | 3.2 | 12.9 | 0.00 | 0.00 | 0.00 | 42 | 1013.5 |
| 20260504233535 | 21 | 96 | 6.4 | 12.9 | 0.00 | 0.00 | 0.00 | 41 | 1013.5 |
| 20260504233038 | 21 | 96 | 6.4 | 12.9 | 0.00 | 0.00 | 0.00 | 41 | 1013.5 |
| 20260504232534 | 21 | 96 | 6.4 | 14.5 | 0.00 | 0.00 | 0.00 | 40 | 1013.4 |
| 20260504232035 | 22 | 96 | 4.8 | 16.1 | 0.00 | 0.00 | 0.00 | 40 | 1013.3 |
| 20260504231533 | 22 | 96 | 6.4 | 17.7 | 0.00 | 0.00 | 0.00 | 39 | 1013.3 |
| 20260504231034 | 22 | 96 | 9.7 | 17.7 | 0.00 | 0.00 | 0.00 | 39 | 1013.3 |
| 20260504230533 | 22 | 96 | 8.0 | 19.3 | 0.00 | 0.00 | 0.00 | 38 | 1013.3 |
| 20260504230033 | 22 | 96 | 8.0 | 22.5 | 0.00 | 0.00 | 0.00 | 38 | 1013.3 |
| 20260504225534 | 22 | 96 | 9.7 | 17.7 | 0.00 | 0.00 | 0.00 | 36 | 1013.3 |
| 20260504224533 | 22 | 96 | 6.4 | 24.1 | 0.00 | 0.00 | 0.00 | 37 | 1013.3 |
| 20260504224032 | 23 | 96 | 14.5 | 27.4 | 0.00 | 0.00 | 0.00 | 36 | 1013.2 |
| 20260504223532 | 23 | 96 | 12.9 | 27.4 | 0.00 | 0.00 | 0.00 | 36 | 1013.4 |
| 20260504223035 | 23 | 96 | 8.0 | 24.1 | 0.00 | 0.00 | 0.00 | 36 | 1013.3 |
| 20260504222533 | 23 | 96 | 12.9 | 27.4 | 0.00 | 0.00 | 0.00 | 35 | 1013.4 |
| 20260504222031 | 23 | 96 | 14.5 | 27.4 | 0.00 | 0.00 | 0.00 | 35 | 1013.4 |
| 20260504221531 | 23 | 96 | 14.5 | 30.6 | 0.00 | 0.00 | 0.00 | 34 | 1013.4 |
| 20260504221034 | 23 | 96 | 14.5 | 30.6 | 0.00 | 0.00 | 0.00 | 35 | 1013.4 |
| 20260504220532 | 23 | 95 | 19.3 | 29.0 | 0.00 | 0.00 | 0.00 | 35 | 1013.3 |
| 20260504220040 | 23 | 96 | 12.9 | 29.0 | 0.00 | 0.00 | 0.00 | 36 | 1013.4 |
| 20260504215532 | 23 | 96 | 17.7 | 30.6 | 0.00 | 0.00 | 0.00 | 36 | 1013.3 |
| 20260504214540 | 23 | 96 | 24.1 | 30.6 | 0.00 | 0.00 | 0.00 | 36 | 1013.3 |
| 20260504214032 | 23 | 95 | 19.3 | 29.0 | 0.00 | 0.00 | 0.00 | 35 | 1013.3 |
| 20260504213533 | 23 | 95 | 14.5 | 30.6 | 0.00 | 0.00 | 0.00 | 37 | 1013.3 |
| 20260504213034 | 23 | 95 | 20.9 | 37.0 | 0.00 | 0.00 | 0.00 | 36 | 1013.3 |
| 20260504212531 | 23 | 96 | 17.7 | 29.0 | 0.00 | 0.00 | 0.00 | 35 | 1013.3 |
| 20260504212033 | 24 | 96 | 17.7 | 29.0 | 0.00 | 0.00 | 0.00 | 35 | 1013.2 |
| 20260504211535 | 24 | 96 | 12.9 | 29.0 | 0.00 | 0.00 | 0.00 | 35 | 1013.2 |
| 20260504211031 | 24 | 96 | 17.7 | 29.0 | 0.00 | 0.00 | 0.00 | 36 | 1013.1 |
| 20260504210530 | 24 | 96 | 16.1 | 29.0 | 0.00 | 0.00 | 0.00 | 36 | 1013.1 |
| 20260504210030 | 24 | 96 | 12.9 | 30.6 | 0.00 | 0.00 | 0.00 | 35 | 1013.2 |
| 20260504205530 | 24 | 96 | 16.1 | 29.0 | 0.00 | 0.00 | 0.00 | 36 | 1013.2 |
| 20260504204530 | 24 | 96 | 16.1 | 29.0 | 0.00 | 0.00 | 0.00 | 36 | 1013.2 |
| 20260504204029 | 24 | 96 | 6.4 | 29.0 | 0.00 | 0.00 | 0.00 | 36 | 1013.2 |
| 20260504203532 | 24 | 96 | 12.9 | 22.5 | 0.00 | 0.00 | 0.00 | 36 | 1013.4 |
| 20260504203029 | 24 | 96 | 12.9 | 22.5 | 0.00 | 0.00 | 0.00 | 37 | 1013.4 |
| 20260504202528 | 24 | 96 | 12.9 | 24.1 | 0.00 | 0.00 | 0.00 | 37 | 1013.4 |
| 20260504202026 | 24 | 96 | 12.9 | 24.1 | 0.00 | 0.00 | 0.00 | 37 | 1013.4 |
| 20260504201526 | 24 | 96 | 11.3 | 24.1 | 0.00 | 0.00 | 0.00 | 36 | 1013.5 |
| 20260504201026 | 24 | 96 | 14.5 | 24.1 | 0.00 | 0.00 | 0.00 | 37 | 1013.5 |
| 20260504200525 | 24 | 96 | 12.9 | 25.7 | 0.00 | 0.00 | 0.00 | 36 | 1013.7 |
| 20260504200025 | 24 | 96 | 16.1 | 25.7 | 0.00 | 0.00 | 0.00 | 36 | 1013.7 |
| 20260504195523 | 24 | 96 | 16.1 | 25.7 | 0.00 | 0.00 | 0.00 | 37 | 1013.8 |
| 20260504194525 | 23 | 96 | 17.7 | 25.7 | 0.00 | 0.00 | 0.00 | 37 | 1014.0 |
| 20260504194022 | 23 | 96 | 11.3 | 24.1 | 0.00 | 0.00 | 0.00 | 37 | 1014.0 |
| 20260504193523 | 23 | 96 | 12.9 | 24.1 | 0.00 | 0.00 | 0.00 | 37 | 1014.1 |
| 20260504193024 | 23 | 96 | 14.5 | 22.5 | 0.00 | 0.00 | 0.00 | 37 | 1014.2 |
| 20260504192520 | 23 | 96 | 11.3 | 25.7 | 0.00 | 0.00 | 0.00 | 37 | 1014.3 |
| 20260504192022 | 23 | 96 | 11.3 | 25.7 | 0.00 | 0.00 | 0.00 | 37 | 1014.3 |
| 20260504191523 | 23 | 96 | 12.9 | 24.1 | 0.00 | 0.00 | 0.00 | 37 | 1014.5 |
| 20260504191019 | 23 | 96 | 16.1 | 24.1 | 0.00 | 0.00 | 0.00 | 37 | 1014.5 |
| 20260504190519 | 24 | 96 | 12.9 | 25.7 | 0.00 | 0.00 | 0.00 | 35 | 1014.5 |
| 20260504190017 | 24 | 96 | 6.4 | 25.7 | 0.00 | 0.00 | 0.00 | 35 | 1014.6 |
| 20260504185515 | 23 | 96 | 14.5 | 27.4 | 0.00 | 0.00 | 0.00 | 37 | 1014.8 |
| 20260504184519 | 23 | 96 | 12.9 | 24.1 | 0.00 | 0.00 | 0.00 | 37 | 1014.7 |
| 20260504184015 | 23 | 96 | 12.9 | 19.3 | 0.00 | 0.00 | 0.00 | 37 | 1014.9 |
| 20260504183516 | 23 | 96 | 8.0 | 24.1 | 0.00 | 0.00 | 0.00 | 37 | 1014.9 |
| 20260504183015 | 23 | 96 | 8.0 | 19.3 | 0.00 | 0.00 | 0.00 | 37 | 1015.0 |
| 20260504182512 | 23 | 96 | 9.7 | 19.3 | 0.00 | 0.00 | 0.00 | 38 | 1015.0 |
| 20260504182012 | 23 | 96 | 11.3 | 17.7 | 0.00 | 0.00 | 0.00 | 38 | 1015.1 |
| 20260504181517 | 23 | 96 | 9.7 | 19.3 | 0.00 | 0.00 | 0.00 | 38 | 1015.2 |
| 20260504181110 | 22 | 96 | 6.4 | 19.3 | 0.00 | 0.00 | 0.00 | 38 | 1015.3 |
| 20260504180511 | 22 | 96 | 9.7 | 19.3 | 0.00 | 0.00 | 0.00 | 38 | 1015.2 |
| 20260504180008 | 22 | 96 | 11.3 | 20.9 | 0.00 | 0.00 | 0.00 | 38 | 1015.4 |
| 20260504175507 | 22 | 96 | 11.3 | 20.9 | 0.00 | 0.00 | 0.00 | 38 | 1015.4 |
| 20260504174507 | 22 | 96 | 11.3 | 20.9 | 0.00 | 0.00 | 0.00 | 38 | 1015.5 |
| 20260504174007 | 22 | 96 | 9.7 | 22.5 | 0.00 | 0.00 | 0.00 | 36 | 1015.6 |
| 20260504173507 | 22 | 96 | 12.9 | 22.5 | 0.00 | 0.00 | 0.00 | 36 | 1015.6 |
| 20260504173006 | 22 | 96 | 8.0 | 12.9 | 0.00 | 0.00 | 0.00 | 35 | 1015.7 |
| 20260504172504 | 22 | 96 | 1.6 | 16.1 | 0.00 | 0.00 | 0.00 | 36 | 1015.6 |
| 20260504172004 | 21 | 96 | 3.2 | 22.5 | 0.00 | 0.00 | 0.00 | 36 | 1015.8 |
| 20260504171508 | 21 | 96 | 14.5 | 22.5 | 0.00 | 0.00 | 0.00 | 36 | 1015.8 |
| 20260504171004 | 21 | 96 | 1.6 | 20.9 | 0.00 | 0.00 | 0.00 | 37 | 1015.8 |
| 20260504170504 | 21 | 96 | 14.5 | 20.9 | 0.00 | 0.00 | 0.00 | 37 | 1015.9 |
| 20260504160105 | 21 | 96 | 1.6 | 11.3 | 0.00 | 0.00 | 0.00 | 38 | 1017.2 |
| 20260504151051 | 20 | 96 | 0.0 | 4.8 | 0.00 | 0.00 | 0.00 | 36 | 1018.0 |
| 20260504150553 | 19 | 96 | 0.0 | 4.8 | 0.00 | 0.00 | 0.00 | 38 | 1018.1 |
| 20260504141039 | 16 | 96 | 1.6 | 6.4 | 0.00 | 0.00 | 0.00 | 52 | 1018.1 |
| 20260504140538 | 15 | 96 | 0.0 | 9.7 | 0.00 | 0.00 | 0.00 | 55 | 1018.0 |
| 20260504130530 | 12 | 96 | 0.0 | 4.8 | 0.00 | 0.00 | 0.00 | 63 | 1017.6 |
| 20260504110510 | 6 | 96 | 3.2 | 9.7 | 0.00 | 0.00 | 0.00 | 82 | 1017.2 |